GW4018 Weather Reports


time (UTC)temp
F
wind
direction
speed
knots
gust
knots
rain 1hr
in
rain 24hr
in
rain mn
in
humidity
%
barometer
mb
20260906231613 62 5 6.1 9.6 0.00 0.11 0.00 79 1015.2
20260906224612 63 360 3.5 7.0 0.00 0.11 0.00 76 1015.4
20260906223110 63 355 3.5 7.8 0.00 0.11 0.00 76 1015.5
20260906221608 62 352 4.3 8.7 0.00 0.11 0.00 77 1015.9
20260906220100 63 346 4.3 8.7 0.00 0.11 0.00 76 1015.9
20260906214613 63 30 3.5 7.8 0.00 0.11 0.00 75 1015.9
20260906213103 62 64 1.7 7.0 0.00 0.11 0.00 75 1015.8
20260906211600 62 0 1.7 4.3 0.00 0.11 0.00 75 1015.9
20260906210112 62 112 2.6 7.0 0.00 0.11 0.00 76 1015.9
20260906204604 62 99 2.6 7.0 0.00 0.11 0.00 77 1015.8
20260906203105 62 126 4.3 7.0 0.00 0.11 0.00 77 1015.9
20260906201636 61 107 1.7 7.8 0.00 0.11 0.00 78 1016.1
20260906200100 61 85 0.9 6.1 0.00 0.11 0.00 80 1016.2
20260906194608 61 134 3.5 7.8 0.00 0.11 0.00 79 1016.3
20260906193059 60 112 4.3 7.8 0.00 0.11 0.00 80 1016.5
20260906191611 60 126 3.5 7.8 0.00 0.11 0.00 80 1016.6
20260906190104 60 86 6.1 9.6 0.00 0.11 0.00 82 1016.8
20260906184603 59 101 6.1 10.4 0.00 0.11 0.00 83 1016.8
20260906183106 59 126 7.8 13.0 0.00 0.11 0.00 85 1016.7
20260906181632 59 132 6.1 11.3 0.00 0.11 0.00 88 1016.9
20260906180104 58 74 3.5 7.0 0.00 0.11 0.00 88 1017.2
20260906174611 58 76 4.3 10.4 0.00 0.11 0.00 88 1017.4
20260906173106 57 66 5.2 9.6 0.00 0.11 0.00 88 1017.4
20260906171600 56 91 7.0 12.2 0.00 0.11 0.00 89 1017.2
20260906164600 54 338 3.5 7.0 0.00 0.11 0.00 90 1018.5
20260906163111 54 347 3.5 8.7 0.00 0.11 0.00 91 1018.6
20260906161608 54 13 3.5 8.7 0.00 0.11 0.00 91 1018.7
20260906160059 53 355 3.5 7.8 0.00 0.11 0.00 91 1018.7
20260906154606 53 5 3.5 9.6 0.00 0.11 0.00 91 1018.8
20260906153059 53 11 3.5 9.6 0.00 0.11 0.00 90 1019.2
20260906151600 53 13 5.2 8.7 0.00 0.11 0.00 88 1019.2
20260906150107 54 34 6.1 12.2 0.00 0.11 0.00 88 1019.2
20260906144603 54 296 6.1 13.9 0.00 0.11 0.00 88 1019.4
20260906143101 54 355 7.0 15.6 0.00 0.11 0.00 88 1019.5
20260906141606 56 355 6.1 11.3 0.00 0.11 0.00 87 1019.5
20260906140109 56 322 4.3 7.0 0.00 0.11 0.00 86 1019.2
20260906134617 56 331 1.7 4.3 0.00 0.16 0.00 85 1018.8
20260906133113 56 9 2.6 4.3 0.00 0.16 0.00 84 1018.8
20260906131606 56 5 1.7 7.8 0.00 0.16 0.00 85 1018.8
20260906130112 56 11 4.3 9.6 0.00 0.16 0.00 85 1019.0
20260906124608 57 350 4.3 7.8 0.00 0.17 0.00 84 1019.0
20260906123101 57 77 4.3 8.7 0.00 0.17 0.00 85 1019.2
20260906121625 58 93 3.5 7.8 0.00 0.17 0.00 85 1018.7
20260906120106 58 89 5.2 12.2 0.00 0.17 0.00 85 1018.4
20260906114625 58 87 4.3 7.8 0.00 0.17 0.00 84 1018.3
20260906113114 58 128 2.6 6.1 0.00 0.17 0.00 84 1018.7
20260906111558 58 98 1.7 9.6 0.00 0.17 0.00 83 1018.7
20260906110106 58 69 5.2 9.6 0.00 0.17 0.00 83 1018.8
20260906104602 58 81 6.1 11.3 0.00 0.17 0.00 83 1019.1
20260906103100 57 64 3.5 9.6 0.00 0.17 0.00 84 1019.2
20260906101602 57 63 4.3 8.7 0.00 0.17 0.00 85 1019.1
20260906100106 57 23 5.2 7.8 0.00 0.17 0.00 85 1018.9
20260906094559 57 66 4.3 7.8 0.00 0.17 0.00 86 1019.1
20260906093105 57 64 3.5 10.4 0.00 0.17 0.00 86 1019.0
20260906091619 56 67 6.1 11.3 0.00 0.17 0.00 88 1018.8
20260906090112 56 68 3.5 9.6 0.00 0.17 0.00 87 1019.0
20260906084601 56 41 4.3 9.6 0.00 0.17 0.00 87 1019.1
20260906083059 56 338 4.3 7.8 0.00 0.17 0.00 87 1019.4
20260906081602 56 45 4.3 8.7 0.00 0.17 0.00 87 1019.7
20260906080111 56 11 3.5 7.8 0.00 0.17 0.00 86 1019.9
20260906074602 56 14 5.2 9.6 0.00 0.17 0.00 85 1019.9
20260906073100 56 338 3.5 7.0 0.00 0.17 0.00 86 1020.1
20260906071616 57 9 1.7 7.0 0.00 0.17 0.00 86 1020.1
20260906070106 56 68 1.7 6.1 0.00 0.17 0.00 86 1020.1
20260906064606 56 57 1.7 7.8 0.01 0.17 0.00 85 1020.2
20260906063100 57 61 2.6 7.0 0.01 0.17 0.00 84 1020.4
20260906061600 57 60 2.6 10.4 0.01 0.17 0.00 83 1020.5
20260906060150 56 355 7.0 13.0 0.01 0.17 0.00 84 1020.6
20260906054613 56 15 7.0 10.4 0.00 0.16 0.16 86 1020.6
20260906053105 56 360 5.2 8.7 0.00 0.16 0.16 85 1020.6
20260906051606 56 15 5.2 8.7 0.01 0.16 0.16 86 1020.3
20260906050116 56 5 5.2 8.7 0.01 0.16 0.16 86 1020.0
20260906044601 56 9 5.2 7.8 0.01 0.16 0.16 86 1020.2
20260906043105 57 10 2.6 7.8 0.01 0.16 0.16 85 1020.1
20260906041558 57 348 4.3 9.6 0.00 0.15 0.15 84 1020.3
20260906040111 58 360 5.2 9.6 0.00 0.15 0.15 82 1019.5
20260906034603 58 56 2.6 9.6 0.09 0.15 0.15 80 1018.9
20260906033104 59 20 3.5 10.4 0.09 0.15 0.15 79 1019.1
20260906031630 59 64 8.7 13.0 0.09 0.15 0.15 76 1019.3
20260906030104 60 73 5.2 13.0 0.09 0.15 0.15 74 1019.4
20260906024605 62 323 9.6 14.8 0.00 0.06 0.06 67 1020.6
20260906023111 62 69 7.0 11.3 0.00 0.06 0.06 64 1017.7
20260906021600 63 81 5.2 8.7 0.00 0.06 0.06 67 1017.4
20260906020106 63 54 1.7 7.0 0.00 0.06 0.06 65 1017.7
20260906014611 64 87 5.2 11.3 0.00 0.06 0.06 61 1017.6
20260906013104 65 67 6.1 10.4 0.00 0.06 0.06 60 1017.6
20260906011610 66 53 5.2 11.3 0.00 0.06 0.06 60 1017.8
20260906010104 67 50 3.5 12.2 0.00 0.06 0.06 57 1017.7
20260906004608 68 86 3.5 11.3 0.00 0.06 0.06 55 1017.7
20260906003104 68 28 3.5 11.3 0.00 0.06 0.06 53 1017.6
20260906001601 70 33 6.1 13.9 0.00 0.06 0.06 51 1017.7
20260906000109 71 350 7.0 13.9 0.00 0.06 0.06 48 1017.8
20260905234559 72 5 4.3 10.4 0.00 0.06 0.06 45 1017.7
20260905233107 72 11 2.6 12.2 0.00 0.06 0.06 45 1018.0